Weather History for Elizabeth City, NC

Change the Weather History Date:

Thursday, February 13, 2014

  Actual Average Record
Temperature  
Mean Temperature 46 °F 44 °F  
Max Temperature 55 °F 54 °F 78 °F (1965)
Min Temperature 36 °F 34 °F 11 °F (1973)
Degree Days  
Heating Degree Days 19 21  
Month to date heating degree days 312 284  
Since 1 July heating degree days 2281 2171  
Cooling Degree Days 0 0  
Month to date cooling degree days 0 0  
Year to date cooling degree days 0 1  
Moisture  
Dew Point 43 °F    
Average Humidity 93    
Maximum Humidity 100    
Minimum Humidity 85    
Precipitation  
Precipitation 0.81 in 0.12 in 1.95 in (1945)
Month to date precipitation 1.54 1.46  
Year to date precipitation 3.71 4.72  
Snow  
Snow 0.00 in - - ()
Month to date snowfall 0.2  
Since 1 July snowfall 9.7  
Snow Depth 0.00 in    
Sea Level Pressure  
Sea Level Pressure 29.46 in    
Wind  
Wind Speed 11 mph (WNW)    
Max Wind Speed 22 mph    
Max Gust Speed 30 mph    
Visibility 5 miles    
Events Fog , Rain    
T = Trace of Precipitation, MM = Missing Value Source: NWS Daily Summary

Daily Weather History Graph

Daily Weather History Graph

Search for Another Location

Airport:

Trip Planner

Search our weather history database for the weather conditions in past years. The results will help you decide how hot, cold, wet, or windy it might be!

Date:

Astronomy

Feb. 13, 2014 Rise Set
Actual Time 6:54 AM EST 5:43 PM EST
Civil Twilight 6:28 AM EST 6:10 PM EST
Nautical Twilight 5:57 AM EST 6:40 PM EST
Astronomical Twilight 5:28 AM EST 7:10 PM EST
Moon 4:50 PM EST (2/13) 5:46 AM EST (2/13)
Length of Visible Light 11h 42m
Length of Day
10h 49m
Waxing Gibbous, 98% of the Moon is Illuminated
Feb 13
Waxing Gibbous
Feb 14
Full
Feb 22
Last Quarter
Mar 1
New
Mar 8
First Quarter

Hourly Weather History & Observations

Time (EST) Temp. Windchill Dew Point Humidity Pressure Visibility Wind Dir Wind Speed Gust Speed Precip Events Conditions
12:17 AM 50.0 °F - 46.0 °F 86% 29.77 in 10.0 mi ENE 18.4 mph - 0.01 in Rain Light Rain
12:54 AM 50.0 °F - 46.9 °F 89% 29.73 in 6.0 mi ENE 15.0 mph 24.2 mph 0.05 in Rain Rain
1:06 AM 48.0 °F - 46.0 °F 93% 29.71 in 3.0 mi ENE 16.1 mph - 0.07 in Rain Heavy Rain
1:26 AM 50.0 °F - 48.0 °F 93% 29.68 in 2.5 mi NE 18.4 mph 28.8 mph 0.18 in Rain Heavy Rain
1:54 AM 50.0 °F - 48.9 °F 96% 29.64 in 1.8 mi NE 15.0 mph 24.2 mph 0.37 in Rain Heavy Rain
2:09 AM 48.9 °F - 48.0 °F 97% 29.62 in 2.5 mi NE 11.5 mph - 0.06 in Rain Rain
2:16 AM 50.0 °F - 48.9 °F 96% 29.60 in 4.0 mi NE 16.1 mph - 0.09 in Rain Rain
2:54 AM 52.0 °F - 51.1 °F 97% 29.58 in 4.0 mi East 6.9 mph - 0.27 in Rain Heavy Rain
3:13 AM 48.9 °F - 48.9 °F 100% 29.56 in 4.0 mi ENE 5.8 mph - 0.04 in Rain Rain
3:21 AM 52.0 °F - 51.1 °F 97% 29.54 in 5.0 mi East 5.8 mph - 0.05 in Rain Rain
3:29 AM 52.0 °F - 52.0 °F 100% 29.53 in 9.0 mi ESE 5.8 mph - 0.06 in Rain Light Rain
3:54 AM 55.0 °F - 54.0 °F 96% 29.52 in 10.0 mi SSE 6.9 mph - 0.07 in Rain Light Rain
4:08 AM 55.0 °F - 55.0 °F 100% 29.52 in 10.0 mi South 4.6 mph - 0.01 in Rain Light Rain
4:44 AM 46.9 °F - 46.0 °F 97% 29.51 in 10.0 mi NW 5.8 mph - 0.02 in Rain Light Rain
4:54 AM 46.9 °F - 46.0 °F 97% 29.51 in 10.0 mi NW 3.5 mph - 0.03 in Rain Light Rain
5:03 AM 46.9 °F - 46.0 °F 97% 29.51 in 10.0 mi Calm Calm - 0.00 in Rain Light Rain
5:16 AM 46.9 °F - 46.0 °F 97% 29.51 in 1.8 mi NNW 3.5 mph - 0.00 in Rain Light Rain
5:30 AM 46.9 °F - 46.9 °F 100% 29.51 in 0.8 mi NW 4.6 mph - 0.00 in Rain Light Rain
5:41 AM 48.0 °F - 48.0 °F 100% 29.52 in 0.8 mi Calm Calm - 0.00 in   Mist
5:54 AM 48.0 °F - 46.9 °F 96% 29.51 in 0.5 mi Calm Calm - 0.00 in Fog Fog
6:54 AM 46.9 °F - 46.9 °F 100% 29.50 in 0.5 mi West 5.8 mph - N/A Fog Fog
7:21 AM 46.9 °F - 46.0 °F 97% 29.49 in 1.0 mi NNW 6.9 mph - N/A   Mist
7:31 AM 45.0 °F 40.6 °F 44.1 °F 97% 29.50 in 0.8 mi NNW 8.1 mph - N/A   Overcast
7:45 AM 45.0 °F 39.7 °F 44.1 °F 97% 29.50 in 1.2 mi NNW 10.4 mph - N/A   Overcast
7:54 AM 45.0 °F 40.6 °F 44.1 °F 97% 29.49 in 1.8 mi NNW 8.1 mph - N/A   Overcast
8:42 AM 43.0 °F 37.7 °F 42.1 °F 97% 29.47 in 0.8 mi NNW 9.2 mph - N/A   Overcast
8:54 AM 43.0 °F 36.8 °F 42.1 °F 97% 29.47 in 0.5 mi NNW 11.5 mph - N/A Fog Fog
9:54 AM 43.0 °F 38.2 °F 43.0 °F 100% 29.46 in 0.5 mi NNW 8.1 mph - N/A Fog Fog
10:54 AM 43.0 °F 37.7 °F 42.1 °F 97% 29.43 in 0.8 mi NNW 9.2 mph - N/A   Overcast
11:10 AM 43.0 °F 38.2 °F 43.0 °F 100% 29.43 in 1.0 mi NW 8.1 mph - N/A   Overcast
11:54 AM 44.1 °F 39.0 °F 43.0 °F 96% 29.38 in 1.2 mi NNW 9.2 mph - N/A   Overcast
12:08 PM 43.0 °F 40.3 °F 43.0 °F 100% 29.38 in 0.8 mi NW 4.6 mph - N/A   Overcast
12:21 PM 44.1 °F 39.0 °F 43.0 °F 96% 29.36 in 1.0 mi NNW 9.2 mph - N/A   Overcast
12:54 PM 43.0 °F 37.7 °F 42.1 °F 97% 29.33 in 2.0 mi NNW 9.2 mph - N/A   Overcast
1:07 PM 44.1 °F 40.1 °F 43.0 °F 96% 29.33 in 4.0 mi NNW 6.9 mph - N/A   Overcast
1:27 PM 44.1 °F 40.8 °F 43.0 °F 96% 29.34 in 2.0 mi West 5.8 mph - 0.01 in Rain Light Rain
1:37 PM 43.0 °F 41.3 °F 43.0 °F 100% 29.33 in 3.0 mi WSW 3.5 mph - 0.01 in Rain Light Rain
1:51 PM 44.6 °F 40.7 °F 42.8 °F 93% 29.34 in 2.0 mi SW 6.9 mph - 0.01 in Rain Light Rain
1:54 PM 44.1 °F 39.5 °F 43.0 °F 96% 29.34 in 1.5 mi WSW 8.1 mph - 0.02 in Rain Light Rain
2:23 PM 44.1 °F 39.5 °F 43.0 °F 96% 29.31 in 4.0 mi West 8.1 mph - 0.00 in   Overcast
2:54 PM 44.1 °F 40.1 °F 43.0 °F 96% 29.30 in 3.0 mi WSW 6.9 mph - 0.00 in   Overcast
3:39 PM 43.0 °F 35.7 °F 41.0 °F 93% 29.30 in 2.5 mi WSW 15.0 mph 21.9 mph 0.00 in Rain Light Rain
3:47 PM 42.1 °F 34.2 °F 41.0 °F 96% 29.30 in 4.0 mi WSW 16.1 mph - 0.00 in   Overcast
3:54 PM 42.1 °F 33.9 °F 39.9 °F 92% 29.31 in 3.0 mi WSW 17.3 mph - 0.00 in   Overcast
4:54 PM 39.9 °F 31.8 °F 37.9 °F 93% 29.32 in 2.5 mi WSW 15.0 mph 25.3 mph 0.00 in Rain Light Rain
5:09 PM 39.0 °F 29.6 °F 37.0 °F 93% 29.33 in 4.0 mi WSW 18.4 mph 27.6 mph 0.00 in Rain Light Rain
5:18 PM 39.0 °F 29.9 °F 37.0 °F 93% 29.33 in 10.0 mi WSW 17.3 mph - 0.00 in   Overcast
5:28 PM 39.0 °F 30.6 °F 36.0 °F 89% 29.33 in 10.0 mi WSW 15.0 mph 25.3 mph 0.00 in   Overcast
5:54 PM 37.9 °F 28.2 °F 36.0 °F 93% 29.34 in 9.0 mi West 18.4 mph - 0.00 in   Overcast
6:12 PM 37.9 °F 29.2 °F 35.1 °F 89% 29.34 in 9.0 mi WSW 15.0 mph 26.5 mph N/A   Overcast
6:54 PM 37.0 °F 26.7 °F 34.0 °F 89% 29.36 in 10.0 mi West 19.6 mph - N/A   Overcast
7:54 PM 36.0 °F 26.7 °F 33.1 °F 89% 29.39 in 10.0 mi West 15.0 mph 25.3 mph N/A   Overcast
8:54 PM 36.0 °F 26.7 °F 33.1 °F 89% 29.42 in 10.0 mi West 15.0 mph 25.3 mph N/A   Overcast
9:27 PM 36.0 °F 25.3 °F 33.1 °F 89% 29.44 in 10.0 mi West 19.6 mph - N/A   Overcast
9:54 PM 36.0 °F 26.0 °F 33.1 °F 89% 29.45 in 10.0 mi West 17.3 mph 28.8 mph N/A   Overcast
10:30 PM 37.0 °F 26.7 °F 33.1 °F 86% 29.48 in 10.0 mi West 19.6 mph 27.6 mph N/A   Overcast
10:54 PM 37.0 °F 27.7 °F 34.0 °F 89% 29.49 in 10.0 mi West 16.1 mph 25.3 mph N/A   Overcast
11:16 PM 37.9 °F 28.5 °F 34.0 °F 86% 29.50 in 10.0 mi West 17.3 mph 24.2 mph N/A   Overcast
11:54 PM 37.9 °F 29.2 °F 34.0 °F 86% 29.52 in 10.0 mi West 15.0 mph 21.9 mph N/A   Mostly Cloudy